This is the latest recevied weather packets stored in our database for station/object N7IGG. If no packets are shown the sender has not sent any weather packets the latest 10 day(s).
| Time | Temp. | Humidity | Pressure | Rain* | Wind** | Luminosity | Snow |
|---|---|---|---|---|---|---|---|
| 1777418846 | 12.78° C | 71% | 1022.7 hPa | 0 mm | - | 93 W/m² | - |
| 1777418543 | 12.78° C | 70% | 1022.6 hPa | 0 mm | - | 103 W/m² | - |
| 1777418240 | 12.78° C | 71% | 1022.6 hPa | 0 mm | - | 104 W/m² | - |
| 1777417935 | 12.78° C | 70% | 1022.7 hPa | 0 mm | - | 99 W/m² | - |
| 1777417632 | 12.78° C | 71% | 1022.6 hPa | 0 mm | - | 105 W/m² | - |
| 1777417327 | 12.78° C | 72% | 1022.7 hPa | 0 mm | - | 143 W/m² | - |
| 1777417024 | 12.78° C | 72% | 1022.7 hPa | 0 mm | - | 177 W/m² | - |
| 1777416719 | 12.78° C | 71% | 1022.4 hPa | 0 mm | - | 241 W/m² | - |
| 1777416415 | 13.33° C | 71% | 1022.6 hPa | 0 mm | - | 242 W/m² | - |
| 1777416109 | 12.78° C | 73% | 1022.7 hPa | 0 mm | - | 229 W/m² | - |
| 1777415804 | 12.78° C | 73% | 1022.7 hPa | 0 mm | - | 265 W/m² | - |
| 1777415501 | 12.78° C | 74% | 1022.5 hPa | 0 mm | - | 268 W/m² | - |
| 1777415197 | 13.33° C | 73% | 1022.6 hPa | 0 mm | - | 290 W/m² | - |
| 1777414892 | 12.78° C | 73% | 1022.7 hPa | 0 mm | - | 283 W/m² | - |
| 1777414590 | 12.78° C | 74% | 1022.6 hPa | 0 mm | - | 252 W/m² | - |
| 1777414286 | 12.78° C | 74% | 1022.6 hPa | 0 mm | - | 242 W/m² | - |
| 1777413981 | 12.78° C | 74% | 1022.6 hPa | 0 mm | - | 247 W/m² | - |
| 1777413677 | 12.78° C | 75% | 1022.7 hPa | 0 mm | - | 236 W/m² | - |
| 1777413373 | 12.78° C | 76% | 1022.6 hPa | 0 mm | - | 235 W/m² | - |
| 1777413069 | 12.78° C | 75% | 1022.8 hPa | 0 mm | - | 239 W/m² | - |
| 1777412764 | 12.78° C | 74% | 1022.5 hPa | 0 mm | - | 280 W/m² | - |
| 1777412463 | 12.78° C | 72% | 1022.8 hPa | 0 mm | - | 273 W/m² | - |
| 1777412160 | 12.78° C | 72% | 1022.6 hPa | 0 mm | - | 254 W/m² | - |
| 1777411856 | 12.78° C | 73% | 1022.7 hPa | 0 mm | - | 254 W/m² | - |
| 1777411555 | 12.78° C | 73% | 1022.8 hPa | 0 mm | - | 237 W/m² | - |
* Rain latest hour (hover to see other rain measurements)
** Current wind speed in m/s (hover to see current wind gust speed)